Flag for Japan Weather past 2 weeks in Nagano, Japan

Now
72 °F

Mild.


Feels Like: 71 °F
Forecast: 68 / 88 °F
Wind: 3 mph from East

Location: Nagano

Current Time: Aug 23, 2014 at 7:44:17 AM

Latest Report: Aug 23, 2014 at 7:00 AM


Visibility: N/A

Pressure: 29.90 "Hg

Humidity: 83%

Dew point: 67 °F

Location of NaganoLocation

Historic Weather in Nagano — Graph

°F

Nagano temperature yesterday

Maximum temperature yesterday: 92 °F (at 12:00 PM)
Minimum temperature yesterday: 73 °F (at 6:00 AM)
Average temperature yesterday: 80 °F

Past Weeks' High & Low Weather Summary

 TemperatureHumidityPressure
High92 °F (Aug 18, 3:00 PM)98% (Aug 17, 6:00 AM)30.00 "Hg (Aug 17, 6:00 AM)
Low66 °F (Aug 9, 5:00 AM)45% (Aug 22, 11:00 AM)29.18 "Hg (Aug 10, 4:00 PM)
Average76 °F80%29.78 "Hg
* Reported Aug 8 6:00 AM — Aug 23 6:00 AM, Nagano, Weather by CustomWeather, © 2014

Note: Actual official high and low records may vary slightly from our data, if they occured in-between our weather recording intervals... More about our weather records

Advertising

Nagano weather history for previous 24 hours

 ConditionsComfort  
Time TempWeatherWind HumidityBarometerVisibility
6:00 AM
Aug 23
72 °FMild.1 mph84%29.88 "HgN/A
5:00 AM71 °FMild.No wind86%29.87 "HgN/A
4:00 AM71 °FMild.3 mph87%29.86 "HgN/A
3:00 AM73 °FSprinkles. Overcast.2 mph82%29.84 "Hg9 mi
2:00 AM74 °FMild.2 mph82%29.84 "HgN/A
1:00 AM74 °FMild.2 mph82%29.85 "HgN/A
12:00 AM75 °FMild.2 mph80%29.85 "HgN/A
11:00 PM
Aug 22
74 °FMild.3 mph80%29.85 "HgN/A
10:00 PM75 °FMild.3 mph76%29.85 "HgN/A
9:00 PM76 °FOvercast.3 mph77%29.84 "Hg12 mi
8:00 PM76 °FMild.3 mph78%29.83 "HgN/A
7:00 PM78 °FWarm.7 mph73%29.82 "HgN/A
6:00 PM80 °FWarm.6 mph66%29.81 "HgN/A
5:00 PM83 °FWarm.9 mph60%29.79 "HgN/A
4:00 PM85 °FWarm.13 mph56%29.77 "HgN/A
3:00 PM86 °FPartly sunny.12 mph55%29.75 "Hg12 mi
2:00 PM90 °FHot.15 mph55%29.76 "HgN/A
1:00 PM92 °FHot.5 mph45%29.77 "HgN/A
12:00 PM92 °FHot.2 mph45%29.80 "HgN/A
11:00 AM88 °FHot.5 mph45%29.83 "HgN/A
10:00 AM86 °FWarm.3 mph47%29.85 "HgN/A
9:00 AM85 °FHaze.7 mph53%29.85 "Hg5 mi
8:00 AM81 °FWarm.3 mph69%29.87 "HgN/A
7:00 AM77 °FWarm.6 mph78%29.89 "HgN/A
Weather by CustomWeather, © 2014

See weather overviewHow to use our weather pages